Location: Ladysmith
(45.4630°N, 91.1040°W)
Time: 18:13:36
(UTC-06:00)

Amateur Radio Satellites - All Passes

Search period start: 22 February 2017 17:43
Search period end: 23 February 2017 17:43
Location: Ladysmith, 45.4630°N, 91.1040°W

Satellite Date Start Highest point End Downlink Frequencies (MHz)
Time Altitude Azimuth
XW-2F 22 Feb 17:49:38 17:53:20 47° 261° (W) 17:57:05 145.980 - 146.000
KAITUO 1B 22 Feb 17:50:09 17:53:52 55° 259° (W) 17:57:39 145.475/437.950
BEESAT 2 22 Feb 17:51:48 17:51:54 10° 252° (WSW) 17:51:59 435.950
XW-2D 22 Feb 17:52:24 17:56:03 41° 262° (W) 17:59:45 145.860 - 145.880
XW-2B 22 Feb 17:57:27 18:01:02 37° 262° (W) 18:04:40 145.730 - 145.750
XW-2C 22 Feb 18:06:12 18:09:36 30° 264° (W) 18:13:03 145.795 - 145.815
CUBESAT XI-V 22 Feb 18:10:33 18:14:10 23° 296° (WNW) 18:17:45 437.345
PCSat 22 Feb 18:11:41 18:16:39 36° 313° (NW) 18:21:39 145.827
UWE-3 22 Feb 18:12:42 18:14:39 13° 58° (ENE) 18:16:36 435.000/436.395/437.385
KKS-1 22 Feb 18:14:30 18:16:51 14° 300° (WNW) 18:19:13 437.445
LilacSat-2 22 Feb 18:20:12 18:23:11 21° 267° (W) 18:26:11 437.200
NUDT-PHONESAT 22 Feb 18:30:09 18:32:55 19° 267° (W) 18:35:44 437.300
CUTE-I 22 Feb 18:34:59 18:39:25 26° 266° (W) 18:43:52 437.470
ZACube-1 22 Feb 18:40:18 18:42:45 15° 60° (ENE) 18:45:14 437.345
AAUSAT CUBESAT 2 22 Feb 18:43:21 18:46:49 26° 67° (ENE) 18:50:18 437.432
SEEDS 22 Feb 18:44:00 18:48:06 51° 73° (ENE) 18:52:14 437.485
HO-68 22 Feb 18:47:22 18:54:34 87° 253° (WSW) 19:01:48 435.675
RS-15 22 Feb 18:48:50 19:00:53 79° 308° (NW) 19:13:22 29.354- 29.394
M-CUBED/EXP-1 PRIME 22 Feb 18:50:58 18:53:33 19° 299° (WNW) 18:56:15 437.505
STRAND 1 22 Feb 18:56:23 19:01:06 34° 96° (E) 19:05:46 437.568
XW-2A 22 Feb 18:58:06 19:01:17 39° 262° (W) 19:04:31 145.665 - 145.685
STARS 22 Feb 18:58:11 18:59:32 11° 303° (WNW) 19:00:53 437.465
CUBEBUG 2 22 Feb 19:02:06 19:06:24 55° 72° (ENE) 19:10:53 437.445
CUTE 1.7 + AOD 2 22 Feb 19:16:23 19:20:32 48° 261° (W) 19:24:42 437.475
AO-73 22 Feb 19:28:36 19:32:42 37° 69° (ENE) 19:36:52 145.935
Oscar 11 22 Feb 19:39:19 19:43:24 42° 70° (ENE) 19:47:32 .
UWE-3 22 Feb 19:45:57 19:50:23 83° 258° (WSW) 19:54:59 435.000/436.395/437.385
PCSat 22 Feb 20:00:29 20:01:45 11° 337° (NNW) 20:03:00 145.827
ZACube-1 22 Feb 20:14:01 20:18:26 71° 258° (WSW) 20:22:59 437.345
AAUSAT CUBESAT 2 22 Feb 20:18:31 20:22:11 30° 264° (W) 20:25:52 437.432
SEEDS 22 Feb 20:21:30 20:24:06 16° 270° (W) 20:26:42 437.485
YUBILEINY 22 Feb 20:22:40 20:30:08 30° 65° (ENE) 20:37:30 435.215
STRAND 1 22 Feb 20:35:38 20:40:14 33° 294° (WNW) 20:44:48 437.568
HO-68 22 Feb 20:38:51 20:43:16 17° 272° (W) 20:47:42 435.675
CUBEBUG 2 22 Feb 20:40:37 20:43:24 16° 271° (W) 20:46:16 437.445
DELFI C3 22 Feb 20:42:35 20:46:31 64° 74° (ENE) 20:50:27 145.870
PRISM 22 Feb 20:44:13 20:47:03 18° 93° (E) 20:49:53 437.425
RS-15 22 Feb 21:04:38 21:15:40 37° 337° (NNW) 21:26:53 29.354- 29.394
AO-73 22 Feb 21:05:26 21:09:02 24° 267° (W) 21:12:42 145.935
ESTCUBE 1 22 Feb 21:12:23 21:14:29 13° 59° (ENE) 21:16:36 437.505/2401.250
Oscar 11 22 Feb 21:16:28 21:19:43 20° 268° (W) 21:22:59 .
UNISAT 6 22 Feb 21:34:14 21:38:22 29° 95° (E) 21:42:28 437.425
TIGRISAT 22 Feb 21:35:32 21:39:36 28° 94° (E) 21:43:38 435.000
VELOX 1 22 Feb 21:51:33 21:52:51 11° 58° (ENE) 21:54:09 145.980
FO-29 22 Feb 21:56:58 22:03:47 32° 91° (E) 22:10:05 435.910
O/OREOS (USA 219) 22 Feb 21:59:19 22:00:43 11° 97° (E) 22:02:07 437.305
PRISM 22 Feb 22:18:42 22:22:32 41° 290° (WNW) 22:26:21 437.425
YUBILEINY 22 Feb 22:19:01 22:27:40 68° 267° (W) 22:36:14 435.215
SPROUT 22 Feb 22:20:10 22:22:50 16° 62° (ENE) 22:25:31 437.525
DELFI C3 22 Feb 22:20:28 22:21:44 11° 271° (W) 22:22:58 145.870
SO-50 22 Feb 22:43:07 22:47:36 46° 119° (ESE) 22:52:01 436.795
ESTCUBE 1 22 Feb 22:46:08 22:50:40 80° 258° (WSW) 22:55:12 437.505/2401.250
50 SAT 22 Feb 23:01:04 23:04:12 31° 70° (ENE) 23:07:20 437.505
DUCHIFAT 1 22 Feb 23:03:19 23:06:21 19° 92° (E) 23:09:22 145.980
EO-79 22 Feb 23:10:14 23:13:51 26° 95° (E) 23:17:27 145.935-145.965
UNISAT 6 22 Feb 23:10:50 23:15:04 33° 292° (WNW) 23:19:15 437.425
TIGRISAT 22 Feb 23:12:02 23:16:17 35° 292° (WNW) 23:20:31 435.000
RS-15 22 Feb 23:22:04 23:32:49 32° 12° (NNE) 23:43:26 29.354- 29.394
VELOX 1 22 Feb 23:24:13 23:28:37 89° 42° (NE) 23:33:01 145.980
DX 1 22 Feb 23:25:40 23:29:45 43° 70° (ENE) 23:33:52 434.975-435.025
POLYITAN 1 22 Feb 23:26:31 23:30:35 38° 98° (E) 23:34:36 437.675
AIST 2D 22 Feb 23:28:18 23:31:53 72° 101° (ESE) 23:35:26 435.315
NANOSAT C BR1 22 Feb 23:28:49 23:32:49 37° 98° (E) 23:36:47 145.865
QB50P2 22 Feb 23:29:19 23:33:27 44° 99° (E) 23:37:32 145.880/145.840
PCSat 22 Feb 23:31:14 23:34:10 14° 31° (NNE) 23:37:05 145.827
O/OREOS (USA 219) 22 Feb 23:34:57 23:39:25 79° 295° (WNW) 23:43:56 437.305
FO-29 22 Feb 23:41:32 23:49:10 59° 292° (WNW) 23:56:11 435.910
UKube-1 22 Feb 23:43:32 23:47:40 48° 71° (ENE) 23:51:49 .
SPROUT 22 Feb 23:54:10 23:58:19 55° 260° (W) 00:02:32 437.525
BUGSAT 1 23 Feb 00:11:29 00:15:23 35° 97° (E) 00:19:17 437.445
ITUPSAT 1 23 Feb 00:18:21 00:19:34 11° 55° (NE) 00:20:47 437.325
YUBILEINY 23 Feb 00:18:54 00:22:40 14° 288° (WNW) 00:26:26 435.215
SO-50 23 Feb 00:24:10 00:28:14 29° 318° (NW) 00:32:16 436.795
BEESAT 23 Feb 00:25:48 00:27:58 13° 57° (ENE) 00:30:10 436.000
Oscar 19 23 Feb 00:34:35 00:38:18 20° 91° (E) 00:41:59 437.125/150
50 SAT 23 Feb 00:34:59 00:37:24 17° 266° (W) 00:39:50 437.505
DUCHIFAT 1 23 Feb 00:38:10 00:42:14 43° 289° (WNW) 00:46:16 145.980
EO-79 23 Feb 00:45:49 00:49:37 32° 292° (WNW) 00:53:25 145.935-145.965
Gurwin Techsat 1B 23 Feb 00:56:57 01:00:37 19° 91° (E) 01:04:16 435.225
POLYITAN 1 23 Feb 01:02:47 01:06:08 22° 295° (WNW) 01:09:28 437.675
DX 1 23 Feb 01:03:01 01:06:08 19° 267° (W) 01:09:17 434.975-435.025
NANOSAT C BR1 23 Feb 01:04:59 01:08:20 23° 295° (WNW) 01:11:40 145.865
QB50P2 23 Feb 01:05:49 01:08:56 20° 296° (WNW) 01:12:03 145.880/145.840
MOZHAYETS 4 23 Feb 01:11:49 01:13:42 12° 58° (ENE) 01:15:35
PCSat 23 Feb 01:13:27 01:18:48 55° 53° (NE) 01:24:08 145.827
O/OREOS (USA 219) 23 Feb 01:17:51 01:19:37 12° 315° (NW) 01:21:24 437.305
UKube-1 23 Feb 01:21:07 01:23:57 17° 268° (W) 01:26:50 .
FO-29 23 Feb 01:28:31 01:32:31 15° 313° (NW) 01:36:25 435.910
RS-15 23 Feb 01:36:20 01:48:36 60° 43° (NE) 02:00:25 29.354- 29.394
BUGSAT 1 23 Feb 01:47:12 01:50:35 24° 294° (WNW) 01:53:58 437.445
ITUPSAT 1 23 Feb 01:51:45 01:56:32 75° 74° (ENE) 02:01:22 437.325
BEESAT 23 Feb 02:00:14 02:05:02 90° 255° (WSW) 02:09:52 436.000
KKS-1 23 Feb 02:03:37 02:04:49 11° 57° (ENE) 02:06:01 437.445
Oscar 19 23 Feb 02:12:58 02:17:59 56° 289° (WNW) 02:22:59 437.125/150
Gurwin Techsat 1B 23 Feb 02:35:44 02:41:01 64° 288° (WNW) 02:46:16 435.225
ITAMSAT 1 23 Feb 02:40:47 02:45:22 30° 95° (E) 02:49:55 435.822/435.867
STARS 23 Feb 02:44:25 02:46:27 13° 59° (ENE) 02:48:30 437.465
MOZHAYETS 4 23 Feb 02:45:29 02:50:08 90° 232° (SW) 02:54:50
AO-7 23 Feb 02:52:44 03:00:04 33° 96° (E) 03:07:20 .
PCSat 23 Feb 02:57:30 03:01:51 25° 252° (WSW) 03:06:10 145.827
ITUPSAT 1 23 Feb 03:32:33 03:34:55 14° 271° (W) 03:37:18 437.325
KKS-1 23 Feb 03:36:13 03:40:39 86° 75° (ENE) 03:45:07 437.445
CUBESAT XI-V 23 Feb 03:37:42 03:42:14 53° 72° (ENE) 03:46:46 437.345
BEESAT 23 Feb 03:42:25 03:43:30 11° 273° (W) 03:44:36 436.000
RS-15 23 Feb 03:49:24 04:00:59 51° 249° (WSW) 04:12:08 29.354- 29.394
M-CUBED/EXP-1 PRIME 23 Feb 04:04:22 04:07:39 74° 70° (ENE) 04:10:55 437.505
STARS 23 Feb 04:17:50 04:22:12 77° 257° (WSW) 04:26:36 437.465
Gurwin Techsat 1B 23 Feb 04:18:49 04:19:57 11° 307° (NW) 04:21:03 435.225
ITAMSAT 1 23 Feb 04:20:03 04:24:55 39° 293° (WNW) 04:29:44 435.822/435.867
AO-85 23 Feb 04:26:14 04:30:17 32° 117° (ESE) 04:34:06 145.980
MOZHAYETS 4 23 Feb 04:27:27 04:27:58 10° 273° (W) 04:28:30
AO-7 23 Feb 04:45:07 04:53:17 62° 295° (WNW) 05:01:23 .
CUTE-I 23 Feb 05:10:09 05:13:11 15° 89° (E) 05:16:12 437.470
CUBESAT XI-V 23 Feb 05:16:42 05:19:55 18° 269° (W) 05:23:07 437.345
XW-2F 23 Feb 05:20:45 05:23:02 15° 91° (E) 05:25:17 145.980 - 146.000
KAITUO 1B 23 Feb 05:20:53 05:22:35 13° 90° (E) 05:24:16 145.475/437.950
DOVE 4 23 Feb 05:22:46 05:26:27 23° 94° (E) 05:30:16 437.250
XW-2D 23 Feb 05:23:30 05:26:07 17° 92° (E) 05:28:41 145.860 - 145.880
XW-2B 23 Feb 05:28:21 05:31:07 19° 93° (E) 05:33:52 145.730 - 145.750
SO-50 23 Feb 05:32:45 05:35:35 16° 32° (NNE) 05:38:23 436.795
XW-2C 23 Feb 05:36:35 05:39:44 23° 94° (E) 05:42:50 145.795 - 145.815
LilacSat-2 23 Feb 05:50:20 05:53:54 35° 97° (E) 05:57:26 437.200
NUDT-PHONESAT 23 Feb 05:57:36 06:01:03 33° 97° (E) 06:04:28 437.300
AO-85 23 Feb 06:06:38 06:10:40 33° 314° (NW) 06:14:30 145.980
STRAND 1 23 Feb 06:14:12 06:19:15 62° 71° (ENE) 06:24:21 437.568
HO-68 23 Feb 06:14:36 06:18:37 16° 87° (E) 06:22:36 435.675
XW-2A 23 Feb 06:19:54 06:20:42 11° 90° (E) 06:21:29 145.665 - 145.685
AO-7 23 Feb 06:39:33 06:44:27 17° 318° (NW) 06:49:20 .
CUTE-I 23 Feb 06:48:26 06:53:51 79° 285° (WNW) 06:59:13 437.470
CUBEBUG 2 23 Feb 06:52:56 06:54:21 11° 86° (E) 06:55:47 437.445
KAITUO 1B 23 Feb 06:53:14 06:56:56 51° 286° (WNW) 07:00:34 145.475/437.950
XW-2F 23 Feb 06:53:46 06:57:25 43° 288° (WNW) 07:01:01 145.980 - 146.000
XW-2D 23 Feb 06:56:53 07:00:28 38° 289° (WNW) 07:04:00 145.860 - 145.880
CUTE 1.7 + AOD 2 23 Feb 06:59:21 07:02:49 24° 94° (E) 07:06:15 437.475
DOVE 4 23 Feb 06:59:56 07:04:16 43° 289° (WNW) 07:08:52 437.250
XW-2B 23 Feb 07:01:55 07:05:26 34° 290° (WNW) 07:08:54 145.730 - 145.750
BEESAT 3 23 Feb 07:08:34 07:12:28 84° 125° (SE) 07:16:28 437.485
XW-2C 23 Feb 07:10:37 07:13:56 28° 291° (WNW) 07:17:12 145.795 - 145.815
SO-50 23 Feb 07:12:17 07:16:49 76° 53° (NE) 07:21:17 436.795
LilacSat-2 23 Feb 07:25:08 07:27:58 20° 294° (WNW) 07:30:46 437.200
NUDT-PHONESAT 23 Feb 07:32:00 07:34:47 20° 294° (WNW) 07:37:33 437.300
UWE-3 23 Feb 07:34:10 07:37:28 19° 91° (E) 07:40:44 435.000/436.395/437.385
PRISM 23 Feb 07:35:46 07:38:38 19° 64° (ENE) 07:41:29 437.425
BEESAT 2 23 Feb 07:41:12 07:45:09 78° 124° (ESE) 07:49:10 435.950
XW-2A 23 Feb 07:50:24 07:53:47 51° 286° (WNW) 07:57:08 145.665 - 145.685
STRAND 1 23 Feb 07:55:20 07:58:51 18° 269° (W) 08:02:23 437.568
AAUSAT CUBESAT 2 23 Feb 07:57:57 08:01:43 34° 96° (E) 08:05:27 437.432
HO-68 23 Feb 08:00:12 08:07:24 82° 106° (ESE) 08:14:34 435.675
ZACube-1 23 Feb 08:00:49 08:04:16 21° 92° (E) 08:07:39 437.345
SEEDS 23 Feb 08:00:58 08:05:10 75° 103° (ESE) 08:09:19 437.485
O/OREOS (USA 219) 23 Feb 08:03:40 08:07:51 34° 58° (ENE) 08:12:02 437.305
FO-29 23 Feb 08:11:58 08:17:11 22° 53° (NE) 08:22:38 435.910
CUBEBUG 2 23 Feb 08:26:48 08:31:36 88° 284° (WNW) 08:36:21 437.445
CUTE-I 23 Feb 08:30:32 08:33:02 13° 305° (NW) 08:35:30 437.470
CUTE 1.7 + AOD 2 23 Feb 08:34:54 08:38:42 32° 291° (WNW) 08:42:27 437.475
UNISAT 6 23 Feb 08:35:00 08:39:00 32° 68° (ENE) 08:43:06 437.425
TIGRISAT 23 Feb 08:36:08 08:40:05 31° 67° (ENE) 08:44:08 435.000
ISS 23 Feb 08:42:14 08:45:13 32° 141° (SE) 08:48:12 437.550
BEESAT 3 23 Feb 08:48:11 08:50:38 16° 324° (NW) 08:53:07 437.485
AO-73 23 Feb 08:50:02 08:54:34 58° 100° (E) 08:59:00 145.935
SO-50 23 Feb 08:54:22 08:56:40 14° 251° (WSW) 08:58:57 436.795
Oscar 11 23 Feb 08:59:58 09:04:17 64° 101° (E) 09:08:34 .
UWE-3 23 Feb 09:09:39 09:14:13 52° 288° (WNW) 09:18:43 435.000/436.395/437.385
PRISM 23 Feb 09:09:44 09:13:37 42° 261° (W) 09:17:32 437.425
Tancredo 1 23 Feb 09:13:25 09:16:39 62° 147° (SSE) 09:19:52 437.200
BEESAT 2 23 Feb 09:20:48 09:23:26 17° 324° (NW) 09:26:05 435.950
YUBILEINY 23 Feb 09:27:13 09:34:34 31° 82° (E) 09:41:53 435.215
AAUSAT CUBESAT 2 23 Feb 09:33:47 09:37:01 23° 294° (WNW) 09:40:14 437.432
ZACube-1 23 Feb 09:36:22 09:40:45 45° 289° (WNW) 09:45:03 437.345
SEEDS 23 Feb 09:38:37 09:40:16 12° 300° (WNW) 09:41:54 437.485
O/OREOS (USA 219) 23 Feb 09:43:14 09:47:09 28° 256° (WSW) 09:51:03 437.305
HO-68 23 Feb 09:48:59 09:54:22 24° 306° (NW) 09:59:44 435.675
DELFI C3 23 Feb 09:52:07 09:56:04 79° 102° (ESE) 09:59:59 145.870
FO-29 23 Feb 09:53:57 10:01:02 85° 75° (ENE) 10:08:50 435.910
DUCHIFAT 1 23 Feb 09:57:23 10:00:21 19° 64° (ENE) 10:03:21 145.980
EO-79 23 Feb 10:04:42 10:08:13 26° 66° (ENE) 10:11:46 145.935-145.965
AIST 2D 23 Feb 10:04:47 10:08:02 34° 71° (ENE) 10:11:18 435.315
CUBEBUG 2 23 Feb 10:05:30 10:07:28 13° 302° (WNW) 10:09:27 437.445
UNISAT 6 23 Feb 10:11:50 10:15:42 28° 266° (W) 10:19:41 437.425
TIGRISAT 23 Feb 10:12:49 10:16:45 29° 265° (W) 10:20:46 435.000
ISS 23 Feb 10:18:23 10:21:36 48° 339° (NNW) 10:24:50 437.550
POLYITAN 1 23 Feb 10:20:58 10:24:53 38° 70° (ENE) 10:28:51 437.675
NANOSAT C BR1 23 Feb 10:22:48 10:26:39 36° 69° (ENE) 10:30:33 145.865
QB50P2 23 Feb 10:23:43 10:27:44 43° 71° (ENE) 10:31:47 145.880/145.840
AO-73 23 Feb 10:27:20 10:30:19 18° 298° (WNW) 10:33:18 145.935
ESTCUBE 1 23 Feb 10:37:17 10:40:23 18° 92° (E) 10:43:29 437.505/2401.250
Oscar 11 23 Feb 10:37:29 10:39:55 15° 299° (WNW) 10:42:20 .
Tancredo 1 23 Feb 10:50:05 10:53:06 34° 346° (NNW) 10:56:07 437.200
BUGSAT 1 23 Feb 11:03:15 11:06:51 32° 68° (ENE) 11:10:31 437.445
VELOX 1 23 Feb 11:13:21 11:15:47 14° 90° (E) 11:18:11 145.980
YUBILEINY 23 Feb 11:22:00 11:30:44 64° 283° (WNW) 11:39:29 435.215
DELFI C3 23 Feb 11:29:31 11:30:15 10° 300° (WNW) 11:30:59 145.870
DUCHIFAT 1 23 Feb 11:31:41 11:35:42 44° 261° (W) 11:39:47 145.980
SPROUT 23 Feb 11:38:08 11:41:27 21° 93° (E) 11:44:45 437.525
AIST 2D 23 Feb 11:39:06 11:41:24 16° 268° (W) 11:43:42 435.315
EO-79 23 Feb 11:40:07 11:43:53 31° 264° (W) 11:47:41 145.935-145.965
FO-29 23 Feb 11:41:51 11:47:01 21° 275° (W) 11:52:31 435.910
Oscar 19 23 Feb 11:53:11 11:57:53 37° 67° (ENE) 12:02:34 437.125/150
ISS 23 Feb 11:55:42 11:58:34 26° 359° (N) 12:01:26 437.550
50 SAT 23 Feb 11:56:47 11:59:40 24° 95° (E) 12:02:34 437.505
POLYITAN 1 23 Feb 11:57:33 12:00:48 21° 267° (W) 12:04:05 437.675
NANOSAT C BR1 23 Feb 11:59:12 12:02:28 22° 267° (W) 12:05:48 145.865
QB50P2 23 Feb 12:00:45 12:03:44 19° 268° (W) 12:06:45 145.880/145.840
AO-7 23 Feb 12:06:22 12:10:49 16° 40° (NE) 12:15:15 .
ESTCUBE 1 23 Feb 12:13:08 12:17:28 49° 289° (WNW) 12:21:45 437.505/2401.250
Gurwin Techsat 1B 23 Feb 12:19:46 12:24:35 37° 66° (ENE) 12:29:26 435.225
Tancredo 1 23 Feb 12:27:07 12:29:58 27° 6° (N) 12:32:48 437.200
BUGSAT 1 23 Feb 12:38:59 12:42:16 23° 266° (W) 12:45:35 437.445
DX 1 23 Feb 12:47:17 12:51:36 60° 102° (ESE) 12:55:54 434.975-435.025
VELOX 1 23 Feb 12:48:16 12:52:37 61° 288° (WNW) 12:56:58 145.980
AO-85 23 Feb 12:55:05 12:58:54 49° 50° (NE) 13:02:44 145.980
UKube-1 23 Feb 13:03:57 13:08:15 65° 102° (ESE) 13:12:32 .
SPROUT 23 Feb 13:13:29 13:17:30 39° 290° (WNW) 13:21:31 437.525
YUBILEINY 23 Feb 13:24:56 13:29:37 15° 307° (NW) 13:34:19 435.215
50 SAT 23 Feb 13:30:00 13:32:44 22° 292° (WNW) 13:35:27 437.505
ISS 23 Feb 13:32:24 13:35:34 42° 19° (NNE) 13:38:43 437.550
Oscar 19 23 Feb 13:32:41 13:37:14 31° 264° (W) 13:41:47 437.125/150
BEESAT 3 23 Feb 13:46:45 13:49:20 16° 36° (NE) 13:51:53 437.485
ITUPSAT 1 23 Feb 13:51:14 13:54:13 16° 90° (E) 13:57:09 437.325
AO-7 23 Feb 13:53:44 14:01:49 56° 63° (ENE) 14:09:54 .
BEESAT 23 Feb 13:58:57 14:02:25 20° 92° (E) 14:05:51 436.000
Gurwin Techsat 1B 23 Feb 13:59:49 14:04:33 33° 264° (W) 14:09:20 435.225
ITAMSAT 1 23 Feb 14:00:40 14:05:45 57° 70° (ENE) 14:10:53 435.822/435.867
Tancredo 1 23 Feb 14:03:26 14:06:40 64° 25° (NNE) 14:09:51 437.200
BEESAT 2 23 Feb 14:20:07 14:22:39 16° 35° (NE) 14:25:11 435.950
DX 1 23 Feb 14:24:41 14:27:19 16° 299° (WNW) 14:29:58 434.975-435.025
AO-85 23 Feb 14:36:22 14:38:56 17° 247° (WSW) 14:41:31 145.980
MOZHAYETS 4 23 Feb 14:39:14 14:42:26 18° 91° (E) 14:45:36
UKube-1 23 Feb 14:41:23 14:43:46 15° 300° (WNW) 14:46:10 .
ISS 23 Feb 15:08:56 15:12:02 39° 218° (SW) 15:15:07 437.550
BEESAT 3 23 Feb 15:23:26 15:27:28 83° 238° (WSW) 15:31:28 437.485
KKS-1 23 Feb 15:26:21 15:28:44 14° 90° (E) 15:31:05 437.445
ITUPSAT 1 23 Feb 15:27:42 15:32:28 63° 288° (WNW) 15:37:11 437.325
CUBESAT XI-V 23 Feb 15:34:31 15:35:39 11° 87° (E) 15:36:46 437.345
BEESAT 23 Feb 15:35:50 15:40:30 51° 290° (WNW) 15:45:07 436.000
Tancredo 1 23 Feb 15:40:13 15:42:41 21° 223° (SW) 15:45:09 437.200
ITAMSAT 1 23 Feb 15:41:47 15:45:35 20° 268° (W) 15:49:25 435.822/435.867
AO-7 23 Feb 15:47:14 15:54:51 38° 263° (W) 16:02:29 .
BEESAT 2 23 Feb 15:56:56 16:01:01 87° 232° (SW) 16:05:03 435.950
PCSat 23 Feb 15:57:45 16:02:26 31° 110° (ESE) 16:07:09 145.827
RS-15 23 Feb 16:05:03 16:14:02 26° 100° (E) 16:23:13 29.354- 29.394
XW-2F 23 Feb 16:05:07 16:06:23 11° 61° (ENE) 16:07:40 145.980 - 146.000
STARS 23 Feb 16:05:57 16:08:47 17° 91° (E) 16:11:37 437.465
XW-2D 23 Feb 16:07:53 16:09:41 13° 62° (ENE) 16:11:29 145.860 - 145.880
XW-2B 23 Feb 16:12:34 16:14:38 14° 63° (ENE) 16:16:42 145.730 - 145.750
MOZHAYETS 4 23 Feb 16:15:25 16:19:54 51° 289° (WNW) 16:24:20
XW-2C 23 Feb 16:20:32 16:23:06 17° 65° (ENE) 16:25:41 145.795 - 145.815
DOVE 4 23 Feb 16:30:59 16:34:23 25° 66° (ENE) 16:37:50 437.250
CUTE-I 23 Feb 16:33:27 16:38:06 31° 64° (ENE) 16:42:46 437.470
LilacSat-2 23 Feb 16:34:25 16:37:35 25° 68° (ENE) 16:40:48 437.200
NUDT-PHONESAT 23 Feb 16:39:27 16:42:23 22° 67° (ENE) 16:45:21 437.300
HO-68 23 Feb 16:46:38 16:51:05 18° 50° (NE) 16:55:31 435.675
KKS-1 23 Feb 17:01:16 17:05:42 64° 287° (WNW) 17:10:08 437.445
CUBESAT XI-V 23 Feb 17:09:01 17:13:38 85° 287° (WNW) 17:18:14 437.345
M-CUBED/EXP-1 PRIME 23 Feb 17:14:09 17:17:36 35° 105° (ESE) 17:21:17 437.505
KAITUO 1B 23 Feb 17:34:49 17:38:37 84° 257° (WSW) 17:42:28 145.475/437.950
